Latest Weather Observations for Mount Isa

IDQ60801

Issued at 10:32 am EST Thursday 11 February 2016 (issued every 30 minutes, with the page automatically refreshed every 10 minutes)

About weather observations | Map of weather stations | Latest weather observations for QLD | Other Formats
Station Details ID: 029127 Name: MOUNT ISA AERO Lat: -20.68 Lon: 139.49 Height: 340.3 m
Data from the previous 72 hours. | See also: Recent months at Mount Isa
Date/Time
EST
Temp
°C
App
Temp
°C
Dew
Point
Rel
Hum
%
Delta-T
°C
Wind Press
QNH
hPa
Press
MSL
hPa
Rain
since 9 am
mm
Dir
 
Spd
km/h
Gust
km/h
Spd
kts
Gust
kts
11/10:30am 31.8 32.2 19.1 47 8.4 E 15 22 8 12 1011.4 - 0.0
11/10:00am 31.2 32.0 19.9 51 7.5 E 15 24 8 13 1011.5 - 0.0
11/09:30am 30.7 31.7 19.4 51 7.5 E 13 17 7 9 1011.6 - 0.0
11/09:00am 30.3 31.6 19.3 51 7.3 E 11 17 6 9 1011.6 1009.1 1.8
11/08:30am 29.6 31.0 18.7 52 7.1 E 9 13 5 7 1011.4 - 1.8
11/08:00am 28.0 29.4 18.7 57 6.0 E 9 11 5 6 1011.2 - 1.8
11/07:30am 25.1 29.4 22.0 83 2.1 ESE 2 9 1 5 1010.8 - 1.8
11/07:00am 23.5 26.8 22.5 94 0.7 ESE 9 9 5 5 1010.3 - 1.8
11/06:30am 23.6 28.4 22.2 92 0.9 CALM 0 0 0 0 1009.9 - 1.8
11/06:00am 23.7 28.7 22.5 93 0.8 CALM 0 0 0 0 1009.6 1007.1 1.8
11/05:30am 23.7 27.6 22.5 93 0.8 S 6 7 3 4 1009.2 - 1.8
11/05:00am 23.7 28.6 22.3 92 0.9 CALM 0 0 0 0 1008.9 - 1.8
11/04:30am 23.8 28.9 22.6 93 0.8 CALM 0 0 0 0 1008.7 - 1.8
11/04:00am 24.0 28.1 23.0 94 0.7 S 6 9 3 5 1008.6 - 1.8
11/03:30am 24.0 28.0 22.8 93 0.8 S 6 7 3 4 1008.9 - 1.8
11/03:00am 24.3 27.9 23.1 93 0.8 S 9 9 5 5 1008.9 1006.4 1.8
11/02:30am 23.7 28.7 22.5 93 0.8 CALM 0 0 0 0 1009.1 - 1.8
11/02:00am 23.9 28.9 22.5 92 0.9 CALM 0 0 0 0 1009.1 - 1.8
11/01:30am 24.0 27.7 22.6 92 1.0 S 7 9 4 5 1009.0 - 1.8
11/01:00am 24.5 28.2 22.6 89 1.3 S 7 9 4 5 1009.2 - 1.8
11/12:30am 25.1 28.7 23.0 88 1.4 S 9 11 5 6 1009.3 - 1.8
11/12:00am 24.4 27.9 22.8 91 1.1 S 9 9 5 5 1009.4 1006.9 1.8
 
Date/Time
EST
Temp
°C
App
Temp
°C
Dew
Point
Rel
Hum
%
Delta-T
°C
Wind Press
QNH
hPa
Press
MSL
hPa
Rain
since 9 am
mm
Dir
 
Spd
km/h
Gust
km/h
Spd
kts
Gust
kts
10/11:30pm 24.7 28.9 23.1 91 1.1 S 6 7 3 4 1009.4 - 1.8
10/11:00pm 25.0 29.1 23.2 90 1.2 S 7 9 4 5 1009.3 - 1.8
10/10:30pm 25.1 29.2 23.0 88 1.4 ESE 6 7 3 4 1009.2 - 1.8
10/10:00pm 25.5 29.4 23.0 86 1.7 S 7 7 4 4 1009.3 - 1.8
10/09:30pm 25.7 30.2 22.2 81 2.4 WSW 2 7 1 4 1009.3 - 1.8
10/09:00pm 26.3 29.4 21.1 73 3.5 NNE 6 7 3 4 1009.1 1006.6 1.8
10/08:30pm 26.6 29.7 21.4 73 3.5 NNE 7 9 4 5 1008.7 - 1.8
10/08:00pm 27.3 30.1 21.6 71 3.9 NNE 9 13 5 7 1008.7 - 1.8
10/07:30pm 28.1 30.3 21.9 69 4.2 NNE 13 17 7 9 1008.2 - 1.8
10/07:00pm 28.9 30.7 21.1 62 5.3 NE 13 15 7 8 1007.9 - 1.8
10/06:30pm 29.9 32.6 20.7 57 6.2 N 7 11 4 6 1007.5 - 1.8
10/06:00pm 29.6 32.2 20.5 58 6.1 NE 7 9 4 5 1007.2 1004.7 1.8
10/05:30pm 28.9 29.4 20.9 62 5.4 SE 19 24 10 13 1007.1 - 1.8
10/05:00pm 29.0 29.9 19.3 55 6.4 ENE 13 19 7 10 1007.2 - 1.8
10/04:30pm 30.3 31.7 19.6 52 7.1 NNE 11 15 6 8 1007.2 - 1.8
10/04:00pm 28.6 27.9 21.1 64 5.1 ENE 26 35 14 19 1007.3 - 1.8
10/03:30pm 24.9 25.7 21.4 81 2.3 NE 19 30 10 16 1007.9 - 1.8
10/03:14pm 23.9 24.4 22.0 89 1.3 ESE 22 32 12 17 1008.3 - 1.8
10/03:09pm 23.6 23.7 21.9 90 1.1 ESE 24 32 13 17 1008.3 - 1.8
10/03:04pm 23.1 19.5 21.7 92 0.9 S 43 63 23 34 1008.2 - 1.6
10/03:00pm 22.9 17.5 20.8 88 1.4 S 50 63 27 34 1008.5 1006.0 1.6
10/02:48pm 25.8 21.0 19.7 69 4.0 S 44 54 24 29 1008.1 - 0.0
10/02:45pm 27.2 26.0 20.8 68 4.3 SSE 28 50 15 27 1008.1 - 0.0
10/02:30pm 33.3 34.7 20.4 46 8.7 E 13 28 7 15 1007.6 - 0.0
10/02:00pm 34.4 35.3 20.0 42 9.7 SE 15 19 8 10 1007.8 - 0.0
10/01:30pm 33.9 34.9 20.3 45 9.2 ESE 15 20 8 11 1008.5 - 0.0
10/01:00pm 33.4 34.9 20.5 46 8.7 ESE 13 22 7 12 1008.9 - 0.0
10/12:30pm 32.6 34.5 20.5 49 8.2 ESE 11 19 6 10 1009.5 - 0.0
10/12:00pm 32.3 34.9 21.2 52 7.6 S 9 15 5 8 1009.8 1007.3 0.0
10/11:30am 31.9 34.2 22.0 55 6.8 E 13 20 7 11 1010.1 - 0.0
10/11:00am 31.3 33.3 21.5 56 6.7 ESE 13 17 7 9 1010.3 - 0.0
10/10:30am 30.8 32.9 21.0 56 6.6 E 11 17 6 9 1010.6 - 0.0
10/10:00am 30.6 33.0 22.2 61 5.8 E 13 19 7 10 1010.8 - 0.0
10/09:30am 29.7 31.7 20.8 58 6.0 E 11 17 6 9 1010.9 - 0.0
10/09:00am 28.9 32.6 22.6 69 4.3 SSW 7 11 4 6 1010.7 1008.3 27.6
10/08:30am 27.0 30.5 22.2 75 3.3 SSE 7 11 4 6 1010.6 - 27.6
10/08:08am 26.5 30.0 22.8 80 2.5 SSE 9 11 5 6 1010.4 - 27.6
10/08:00am 26.3 29.6 22.6 80 2.5 S 9 9 5 5 1010.4 - 27.6
10/07:30am 25.4 29.7 23.3 88 1.4 S 6 9 3 5 1010.2 - 27.6
10/07:00am 24.1 28.1 23.1 94 0.7 SE 7 9 4 5 1009.5 - 27.6
10/06:30am 23.6 28.8 22.8 95 0.5 CALM 0 0 0 0 1009.3 - 27.6
10/06:00am 23.5 28.7 22.8 96 0.5 CALM 0 0 0 0 1008.9 1006.4 27.6
10/05:30am 23.6 27.9 22.6 94 0.7 SSW 4 9 2 5 1008.6 - 27.6
10/05:00am 23.6 28.5 22.4 93 0.8 CALM 0 0 0 0 1008.7 - 27.6
10/04:30am 23.7 28.4 22.7 94 0.7 SW 2 7 1 4 1008.7 - 27.6
10/04:00am 23.8 28.9 22.6 93 0.8 CALM 0 2 0 1 1008.8 - 27.6
10/03:30am 24.2 27.5 22.6 91 1.1 N 9 11 5 6 1008.9 - 27.6
10/03:00am 24.7 28.4 22.6 88 1.4 NE 7 9 4 5 1009.2 1006.7 27.6
10/02:30am 24.9 28.5 22.4 86 1.7 ENE 7 11 4 6 1009.2 - 27.6
10/02:00am 25.0 27.5 22.5 86 1.7 ENE 13 15 7 8 1009.4 - 27.6
10/01:30am 25.2 28.5 22.5 85 1.8 NE 9 13 5 7 1009.3 - 27.6
10/01:00am 25.6 29.2 23.1 86 1.7 NNE 9 11 5 6 1009.4 - 27.6
10/12:30am 25.7 29.3 23.0 85 1.9 NE 9 13 5 7 1009.9 - 27.6
10/12:00am 26.0 28.6 22.7 82 2.3 ENE 13 19 7 10 1009.8 1007.3 27.6
 
Date/Time
EST
Temp
°C
App
Temp
°C
Dew
Point
Rel
Hum
%
Delta-T
°C
Wind Press
QNH
hPa
Press
MSL
hPa
Rain
since 9 am
mm
Dir
 
Spd
km/h
Gust
km/h
Spd
kts
Gust
kts
09/11:30pm 25.8 29.6 23.5 87 1.6 NE 9 13 5 7 1009.9 - 27.6
09/11:00pm 25.8 30.3 24.0 90 1.3 NNE 7 9 4 5 1009.7 - 27.6
09/10:30pm 25.9 30.6 23.9 89 1.4 N 6 7 3 4 1009.5 - 27.6
09/10:00pm 25.7 31.6 24.1 91 1.1 CALM 0 0 0 0 1009.2 - 27.6
09/09:30pm 25.8 31.5 23.7 88 1.5 CALM 0 0 0 0 1009.2 - 27.6
09/09:00pm 25.4 30.1 23.3 88 1.4 WNW 4 6 2 3 1009.4 1006.9 27.6
09/08:30pm 25.6 29.4 22.7 84 2.0 SE 7 11 4 6 1009.6 - 27.6
09/08:00pm 25.3 30.2 23.0 87 1.6 NNW 2 7 1 4 1009.5 - 27.6
09/07:30pm 25.0 27.6 22.7 87 1.6 NNW 13 19 7 10 1009.1 - 27.6
09/07:00pm 24.8 27.2 23.0 90 1.2 N 15 20 8 11 1008.9 - 27.6
09/06:30pm 24.5 27.5 23.3 93 0.8 N 13 19 7 10 1008.6 - 27.4
09/06:00pm 23.9 27.2 22.5 92 1.0 ESE 9 13 5 7 1009.1 1006.6 27.2
09/05:30pm 23.3 27.1 21.7 91 1.1 ESE 4 9 2 5 1009.2 - 26.6
09/05:26pm 23.4 26.9 21.8 91 1.1 SE 6 7 3 4 1009.1 - 26.6
09/05:00pm 23.3 23.0 20.4 84 1.9 SW 22 32 12 17 1009.8 - 24.2
09/04:48pm 24.1 21.8 20.2 79 2.6 WSW 32 35 17 19 1010.0 - 16.4
09/04:30pm 23.3 25.0 21.0 87 1.5 S 13 15 7 8 1008.6 - 13.6
09/04:28pm 23.3 23.7 21.0 87 1.5 SSE 20 28 11 15 1008.5 - 13.4
09/04:11pm 24.2 22.5 21.3 84 1.9 S 32 35 17 19 1008.4 - 12.0
09/04:00pm 24.3 22.3 21.2 83 2.1 S 33 44 18 24 1008.4 - 11.8
09/03:50pm 24.3 21.4 21.6 85 1.8 S 39 43 21 23 1008.4 - 10.6
09/03:30pm 24.9 21.2 22.6 87 1.6 SSW 46 57 25 31 1008.3 - 4.0
09/03:24pm 25.3 21.5 22.4 84 2.0 SSW 46 57 25 31 1008.3 - 1.4
09/03:11pm 28.5 26.2 21.3 65 4.9 SW 35 63 19 34 1007.6 - 0.0
09/03:09pm 30.2 28.6 20.7 56 6.4 SW 30 37 16 20 1007.5 - 0.0
09/03:00pm 35.4 36.1 18.0 35 11.5 ENE 11 15 6 8 1007.1 1004.6 0.0
09/02:30pm 37.0 36.5 19.9 36 11.6 NE 22 26 12 14 1007.3 - 0.0
09/02:00pm 36.7 36.2 18.7 34 12.0 E 19 30 10 16 1007.8 - 0.0
09/01:30pm 36.6 36.5 20.0 38 11.2 ENE 20 30 11 16 1008.7 - 0.0
09/01:00pm 35.1 35.5 19.1 39 10.7 NE 15 22 8 12 1009.3 - 0.0
09/12:30pm 35.7 35.6 20.0 39 10.6 NE 20 32 11 17 1009.5 - 0.0
09/12:00pm 35.5 34.8 19.4 38 10.8 ENE 22 28 12 15 1009.9 1007.4 0.0
09/11:30am 35.2 35.6 20.7 42 9.9 ENE 19 28 10 15 1010.1 - 0.0
09/11:00am 34.6 35.4 21.3 46 9.1 ESE 19 28 10 15 1010.4 - 0.0
09/10:30am 33.3 33.8 20.8 48 8.5 E 19 26 10 14 1010.6 - 0.0
09/10:00am 32.8 33.0 21.3 50 7.8 E 22 28 12 15 1010.8 - 0.0
09/09:30am 31.5 32.0 21.1 54 7.1 ENE 20 28 11 15 1011.0 - 0.0
09/09:00am 31.4 31.1 20.4 52 7.4 ESE 22 30 12 16 1010.8 1008.4 0.0
09/08:30am 30.6 30.4 20.5 54 6.8 E 22 32 12 17 1010.7 - 0.0
09/08:00am 29.8 31.0 20.6 57 6.2 E 15 20 8 11 1010.4 - 0.0
09/07:30am 29.0 29.7 20.4 59 5.7 E 17 26 9 14 1010.3 - 0.0
09/07:00am 28.5 29.2 20.5 62 5.3 ESE 17 24 9 13 1010.0 - 0.0
09/06:30am 28.2 28.8 20.2 62 5.3 ESE 17 26 9 14 1009.6 - 0.0
09/06:00am 28.4 28.7 20.4 62 5.3 ESE 19 28 10 15 1009.2 1006.7 0.0
09/05:30am 28.5 28.7 20.2 60 5.5 E 19 30 10 16 1008.9 - 0.0
09/05:00am 28.7 29.8 20.4 60 5.5 E 15 19 8 10 1008.9 - 0.0
09/04:30am 28.9 29.6 20.4 60 5.7 E 17 26 9 14 1008.6 - 0.0
09/04:00am 29.2 28.9 20.4 59 5.9 E 22 32 12 17 1008.6 - 0.0
09/03:30am 29.9 27.5 19.9 55 6.6 E 32 41 17 22 1008.6 - 0.0
09/03:00am 30.4 30.6 18.5 49 7.8 SE 15 26 8 14 1008.4 1005.9 0.0
09/02:30am 30.7 30.3 18.1 47 8.2 SSE 17 26 9 14 1008.3 - 0.0
09/02:00am 31.3 30.7 17.6 44 8.9 SSE 17 26 9 14 1008.3 - 0.0
09/01:30am 31.9 30.0 16.6 39 9.8 SSE 22 32 12 17 1008.7 - 0.0
09/01:00am 31.9 31.0 15.8 38 10.2 SSE 15 22 8 12 1009.1 - 0.0
09/12:30am 31.6 31.5 16.0 39 9.9 S 11 15 6 8 1009.2 - 0.0
09/12:00am 32.2 32.0 15.7 37 10.4 SSE 11 15 6 8 1009.6 1007.1 0.0
 
Date/Time
EST
Temp
°C
App
Temp
°C
Dew
Point
Rel
Hum
%
Delta-T
°C
Wind Press
QNH
hPa
Press
MSL
hPa
Rain
since 9 am
mm
Dir
 
Spd
km/h
Gust
km/h
Spd
kts
Gust
kts
08/11:30pm 32.7 31.6 15.2 34 11.0 SSE 15 20 8 11 1009.9 - 0.0
08/11:00pm 33.0 31.3 14.6 33 11.5 SSE 17 20 9 11 1009.8 - 0.0
08/10:30pm 33.3 31.1 13.4 30 12.2 SSE 17 22 9 12 1009.8 - 0.0
08/10:00pm 34.0 31.9 13.5 29 12.6 SSE 17 24 9 13 1009.6 - 0.0
08/09:30pm 34.2 32.9 13.6 29 12.7 SSE 13 19 7 10 1009.4 - 0.0
08/09:00pm 34.5 32.7 14.4 30 12.6 S 17 20 9 11 1009.1 1006.6 0.0
08/08:30pm 34.8 33.3 15.2 31 12.4 S 17 24 9 13 1008.7 - 0.0
08/08:00pm 34.9 33.6 15.7 31 12.2 S 17 24 9 13 1008.3 - 0.0
08/07:30pm 34.9 33.0 15.7 31 12.2 S 20 24 11 13 1007.9 - 0.0
08/07:00pm 35.2 34.4 16.0 31 12.3 SSE 15 28 8 15 1007.6 - 0.0
08/06:30pm 36.0 36.4 15.2 29 13.2 SSE 7 9 4 5 1007.3 - 0.0
08/06:00pm 36.5 36.0 15.0 27 13.7 SSE 11 15 6 8 1007.1 1004.6 0.0
08/05:30pm 36.7 37.5 16.3 30 13.2 ESE 7 9 4 5 1007.0 - 0.0
08/05:00pm 36.7 36.3 15.2 27 13.7 SE 11 20 6 11 1007.1 - 0.0
08/04:30pm 37.6 38.2 15.4 27 14.2 NNE 6 13 3 7 1007.2 - 0.0
08/04:00pm 37.1 37.0 15.0 27 14.0 ENE 9 15 5 8 1007.3 - 0.0
08/03:30pm 37.0 36.9 16.0 28 13.5 ENE 11 17 6 9 1007.6 - 0.0
08/03:00pm 37.4 36.8 14.6 25 14.4 E 11 17 6 9 1007.8 1005.4 0.0
08/02:30pm 36.5 36.3 15.6 29 13.4 SSE 11 17 6 9 1008.3 - 0.0
08/02:00pm 36.8 36.5 16.4 30 13.2 E 13 20 7 11 1008.9 - 0.0
08/01:30pm 37.1 37.4 17.1 30 13.1 ESE 11 20 6 11 1009.3 - 0.0
08/01:00pm 36.8 36.5 17.4 32 12.7 ESE 15 22 8 12 1009.8 - 0.0
08/12:30pm 36.6 36.3 18.2 34 12.2 E 17 26 9 14 1010.3 - 0.0
08/12:00pm 35.5 35.0 17.7 35 11.7 ESE 17 26 9 14 1010.8 1008.4 0.0
08/11:30am 35.2 35.7 18.3 36 11.2 ESE 13 20 7 11 1011.2 - 0.0
08/11:00am 34.3 34.0 19.5 41 9.9 E 20 26 11 14 1011.4 - 0.0

Other Formats:

Comma delimited format used in spreadsheet applications
http://www.bom.gov.au/fwo/IDQ60801/IDQ60801.94332.axf

JavaScript Object Notation format (JSON) in row-major order
http://www.bom.gov.au/fwo/IDQ60801/IDQ60801.94332.json